Regional Weather Roundup
Issued by NWS

Home | Current Version | Previous Version | Text Only | Print | Product List | Glossary On
Versions: 1 2 3 4 5 6 7 8 9 10 11 12 13 14 15 16 17 18 19 20 21 22 23 24 25 26 27 28 29 30 31 32 33 34 35 36 37 38 39 40 41 42 43 44 45 46 47 48 49 50
000
ASUS43 KMKX 312210
RWRWI

WISCONSIN REGIONAL WEATHER ROUNDUP
NATIONAL WEATHER SERVICE MILWAUKEE/SULLIVAN WI
400 PM CST SAT JAN 31 2015

NOTE: "FAIR" INDICATES FEW OR NO CLOUDS BELOW 12,000 FEET WITH NO
SIGNIFICANT WEATHER AND/OR OBSTRUCTIONS TO VISIBILITY.

WIZ001-002-006>008-014>016-023>028-312300-
NORTHWEST WISCONSIN

CITY           SKY/WX    TMP DP  RH WIND       PRES   REMARKS
SUPERIOR ARPT  CLEAR     22   6  50 NE7       30.28S WCI  14
ASHLAND        CLEAR     18   7  62 NE15      30.29R WCI   4
HAYWARD        PTCLDY    23   8  52 NE12      30.20S WCI  12
SIREN          MOSUNNY   26   6  42 E7        30.22R WCI  18
CUMBERLAND     MOSUNNY   23  12  63 NE8       30.19R WCI  14
RICE LAKE      PTCLDY    24  15  66 N9        30.21R WCI  15
CHETEK         CLOUDY    26  16  65 NE3       30.20R
LADYSMITH      CLOUDY    25  16  68 NE9       30.20S WCI  15
EAU CLAIRE     CLOUDY    28  18  66 NE3       30.19R
MENOMONIE      CLOUDY    28  19  69 N7        30.20R WCI  21
NEW RICHMOND   CLOUDY    28  17  64 NE5       30.19S WCI  23
OSCEOLA        PTSUNNY   28  18  64 NE7       30.23R WCI  21
$$

WIZ003>005-009-010-017-018-312300-
NORTH CENTRAL WISCONSIN

CITY           SKY/WX    TMP DP  RH WIND       PRES   REMARKS
MANITOWISH WTR CLOUDY    16   8  71 N9        30.18S WCI   5
ARBOR VITAE    FLURRIES  22  13  70 N9        30.16S WCI  11
WOODRUFF       FLURRIES  22  13  70 N9        30.16S WCI  11
RHINELANDER    CLOUDY    21  11  65 N3        30.16R
EAGLE RIVER    CLOUDY    19   8  63 N8G17     30.16R WCI   8
LAND O LAKES   FLURRIES  17  10  73 N10       30.18S WCI   5
PHILLIPS       CLOUDY    19  12  72 N10       30.17S WCI   8
TOMAHAWK       CLOUDY    22  13  68 NW7       30.17R WCI  14
MEDFORD        CLOUDY    24  16  73 N9        30.15R WCI  14
MERRILL        CLOUDY    24  16  73 N9        30.17R WCI  14
$$

WIZ029-030-035-036-043>047-312300-
CENTRAL WISCONSIN

CITY           SKY/WX    TMP DP  RH WIND       PRES   REMARKS
WAUSAU         CLOUDY    26  17  68 N5        30.15R WCI  20
MOSINEE        NOT AVBL
MARSHFIELD     CLOUDY    28  18  66 N3        30.16S
STEVENS POINT  CLOUDY    26  18  72 NE6       30.17R WCI  19
WAUPACA        CLOUDY    31  21  65 N3        30.18S
WAUTOMA        CLOUDY    29  21  71 NE5       30.18R WCI  24
WISC RAPIDS    CLOUDY    28  18  66 N8        30.18S WCI  20
CAMP DOUGLAS   CLOUDY    29  26  87 NE5       30.16S WCI  24
$$

WIZ011>013-019>022-031-037>040-048>050-312300-
NORTHEAST WISCONSIN

CITY           SKY/WX    TMP DP  RH WIND       PRES   REMARKS
ANTIGO         CLOUDY    23  17  78 N9        30.15S WCI  13
SHAWANO        CLOUDY    31  20  65 NE6       30.18S WCI  25
OCONTO         CLOUDY    28  19  69 MISG      30.20R
STURGEON BAY   CLOUDY    27  18  69 NW3       30.22R
GREEN BAY      CLOUDY    28  19  69 NW3       30.19R
MANITOWOC      CLOUDY    28  20  71 N6        30.19R WCI  22
APPLETON       CLOUDY    27  18  69 CALM      30.18R
CLINTONVILLE   CLOUDY    30  19  64 N7        30.18S WCI  23
OSHKOSH        CLOUDY    28  19  69 NE6       30.18R WCI  22
$$

WIZ032>034-041-042-053>061-312300-
SOUTHWEST WISCONSIN

CITY           SKY/WX    TMP DP  RH WIND       PRES   REMARKS
LA CROSSE      CLOUDY    32  23  69 N3        30.16F
SPARTA         CLOUDY    30  22  73 N6        30.17S WCI  24
VIROQUA        CLOUDY    29  25  84 NE7       30.13S WCI  22
BOSCOBEL       CLOUDY    35  24  64 CALM      30.16S
PRAIRIE DU CHI CLOUDY    34  23  65 CALM      30.15R
PLATTEVILLE    CLOUDY    33  26  75 NE5       30.13F WCI  28
$$

WIZ056-057-062-063-064-067-068-312300-
SOUTH CENTRAL WISCONSIN

CITY           SKY/WX    TMP DP  RH WIND       PRES   REMARKS
REEDSBURG      CLOUDY    30  22  73 CALM      30.15S
BARABOO/DELLS  CLOUDY    30  22  70 CALM      30.15S
LONE ROCK      CLOUDY    33  24  69 CALM      30.16R
MINERAL POINT  CLOUDY    34  27  75 CALM      30.13S
MADISON        CLOUDY    34  23  64 N5        30.15S WCI  30
MIDDLETON      CLOUDY    34  24  67 CALM      30.16R
WATERTOWN      CLOUDY    32  23  69 CALM      30.15S
MONROE         CLOUDY    32  27  80 CALM      30.13F
JANESVILLE     CLOUDY    36  23  60 CALM      30.15S
$$

WIZ051-052-058>065-066-070>072-312300-
SOUTHEAST WISCONSIN

CITY           SKY/WX    TMP DP  RH WIND       PRES   REMARKS
MILWAUKEE      CLOUDY    33  21  61 E5        30.17R WCI  29
WAUKESHA       CLOUDY    30  21  69 CALM      30.16R
MILWAUKEE/TIMM CLOUDY    34  19  55 CALM      30.17S
RACINE         CLOUDY    33  22  63 NE6       30.18R WCI  28
BURLINGTON     CLOUDY    32  23  69 S3        30.16S
KENOSHA        CLOUDY    35  22  58 CALM      30.16R
FOND DU LAC    CLOUDY    28  19  69 N9        30.18R WCI  19
SHEBOYGAN      CLOUDY    29  19  66 NE7       30.18R WCI  22
WEST BEND      CLOUDY    32  21  64 CALM      30.16S
JUNEAU         CLOUDY    30  22  72 N6        30.17S WCI  24
$$

LSZ147-162-312300-
LAKE SUPERIOR

STATION/POSITION TIME  TEMP    WIND        PRES    WAVE
                       AIR SEA DIR/SP/G            HT/PER
                 (UTC) (F)     (DEG/KT/KT) (MB)    (FT/S)
DEVILS ISLAND    2200   17      20/ 12/ 14 1028.1R
PORT WING        2140   21      50/ 11/ 14 1026.1R
SAXON HARBOR     2100   20     360/ 11/ 12 1025.7R
$$

LMZ867-665-643>646-312300-
LAKE MICHIGAN

STATION/POSITION TIME  TEMP    WIND        PRES    WAVE
                       AIR SEA DIR/SP/G            HT/PER
                 (UTC) (F)     (DEG/KT/KT) (MB)    (FT/S)
NORTHPORT PIER   2123   26      20/ 10/ 14 1022.4R
SISTER BAY       2113   27        CALM       N/A
KEWAUNEE LAKESHO 2100   27      10/  3/  6 1021.1R
SHEBOYGAN LAKESH 2200   29      10/  8/  9 1023.6R
PORT WASHINGTON  2100   34     360/  2/  8 1022.0
MILWAUKEE LAKESH 2100   32      50/  6/  7   N/A
KENOSHA   LAKESH 2200   33      60/  4/  6 1021.7R
$$

TC  - TEMPERATURE IN CELSIUS
VSB - VISIBILITY IN STATUTE MILES
WCI - WIND CHILL INDEX
HX  - HEAT INDEX




USA.gov is the U.S. government's official web portal to all federal, state and local government web resources and services.